Caslav, Czech Republic

12:13 PM CEST on September 27, 2016 (GMT +0200)
Caslav

Weather History for LKCV - October, 2013

Change the Weather History Date:

Thursday, October 3, 2013

  Actual Average Record
Temperature  
Mean Temperature 40 °F -  
Max Temperature 51 °F - - ()
Min Temperature 28 °F - - ()
Degree Days  
Heating Degree Days 26    
Moisture  
Dew Point 30 °F    
Average Humidity 72    
Maximum Humidity 100    
Minimum Humidity 41    
Precipitation  
Precipitation 0.00 in - - ()
Sea Level Pressure  
Sea Level Pressure 30.39 in    
Wind  
Wind Speed 4 mph ()    
Max Wind Speed 14 mph    
Max Gust Speed -    
Visibility 5.0 miles    
Events      
T = Trace of Precipitation, MM = Missing Value Source: Averaged Metar Reports

Daily Weather History Graph

Daily Weather History Graph

Search for Another Location

Airport or City:

Trip Planner

Search our weather history database for the weather conditions in past years. The results will help you decide how hot, cold, wet, or windy it might be!

Date:

Astronomy

Oct. 03, 2013 Rise Set
Actual Time 7:01 AM CEST 6:32 PM CEST
Civil Twilight 6:29 AM CEST 7:04 PM CEST
Nautical Twilight 5:51 AM CEST 7:41 PM CEST
Astronomical Twilight 5:13 AM CEST 8:20 PM CEST
Moon 5:10 AM CEST (10/3) 5:35 PM CEST (10/3)
Length of Visible Light 12h 35m
Length of Day
11h 31m
Waning Crescent, 3% of the Moon is Illuminated
Oct 3
Waning Crescent
Oct 5
New
Oct 12
First Quarter
Oct 19
Full
Oct 27
Last Quarter

Hourly Weather History & Observations

Time (CEST) Temp. Windchill Dew Point Humidity Pressure Visibility Wind Dir Wind Speed Gust Speed Precip Events Conditions
12:00 AM 32.0 °F 28.7 °F 30.2 °F 93% 30.36 in - SW 3.5 mph - N/A   Clear
1:00 AM 33.8 °F - 32.0 °F 93% 30.36 in - Calm Calm - N/A   Clear
2:00 AM 30.2 °F - 30.2 °F 100% 30.39 in - Calm Calm - N/A   Clear
3:00 AM 30.2 °F - 30.2 °F 100% 30.39 in - Calm Calm - N/A   Clear
4:00 AM 30.2 °F - 30.2 °F 100% 30.39 in - Calm Calm - N/A   Clear
5:00 AM 28.4 °F - 28.4 °F 100% 30.39 in 5.0 mi Calm Calm - N/A   Unknown
6:00 AM 28.4 °F - 28.4 °F 100% 30.39 in 5.0 mi WNW 2.3 mph - N/A   Unknown
7:00 AM 28.4 °F - 28.4 °F 100% 30.39 in 5.0 mi Calm Calm - N/A   Unknown
8:00 AM 28.4 °F - 28.4 °F 100% 30.42 in 5.0 mi Calm Calm - N/A   Unknown
9:00 AM 33.8 °F - 33.8 °F 100% 30.42 in - NW 2.3 mph - N/A   Clear
10:00 AM 42.8 °F - 33.8 °F 70% 30.42 in - Calm Calm - N/A   Clear
11:00 AM 46.4 °F 41.1 °F 28.4 °F 50% 30.42 in - ESE 11.5 mph - N/A   Clear
12:00 PM 48.2 °F - 26.6 °F 43% 30.42 in - ESE 9.2 mph - N/A   Clear
1:00 PM 50.0 °F - 28.4 °F 43% 30.39 in - SE 11.5 mph - N/A   Clear
2:00 PM 50.0 °F - 28.4 °F 43% 30.39 in - SE 11.5 mph - N/A   Clear
3:00 PM 51.8 °F - 30.2 °F 44% 30.36 in - SSE 11.5 mph - N/A   Clear
4:00 PM 51.8 °F - 28.4 °F 41% 30.36 in - SE 10.4 mph - N/A   Clear
5:00 PM 51.8 °F - 30.2 °F 44% 30.36 in - SE 13.8 mph - N/A   Clear
6:00 PM 50.0 °F - 30.2 °F 47% 30.36 in - SE 10.4 mph - N/A   Clear
7:00 PM 48.2 °F - 30.2 °F 50% 30.36 in - SE 8.1 mph - N/A   Clear
8:00 PM 44.6 °F 41.4 °F 32.0 °F 61% 30.39 in - East 5.8 mph - N/A   Clear
9:00 PM 41.0 °F 37.1 °F 32.0 °F 70% 30.39 in - ESE 5.8 mph - N/A   Clear
10:00 PM 41.0 °F 39.0 °F 30.2 °F 65% 30.39 in - ESE 3.5 mph - N/A   Clear
11:00 PM 39.2 °F 35.0 °F 30.2 °F 70% 30.39 in - ENE 5.8 mph - N/A   Clear